TimeCDT,TemperatureF,Dew PointF,Humidity,Sea Level PressureIn,VisibilityMPH,Wind Direction,Wind SpeedMPH,Gust SpeedMPH,PrecipitationIn,Events,Conditions,WindDirDegrees,DateUTC
12:15 AM,75.7,68.0,77,29.75,10.0,SSE,10.4,-,N/A,,Clear,150,2013-06-25 05:15:00
12:35 AM,76.3,67.5,74,29.76,10.0,SSE,13.8,20.7,N/A,,Clear,160,2013-06-25 05:35:00
12:55 AM,77.0,67.3,72,29.76,10.0,South,13.8,20.7,N/A,,Clear,170,2013-06-25 05:55:00
1:15 AM,77.4,67.5,71,29.75,10.0,South,16.1,21.9,N/A,,Clear,170,2013-06-25 06:15:00
1:35 AM,77.7,67.8,71,29.74,10.0,South,16.1,20.7,N/A,,Clear,180,2013-06-25 06:35:00
1:55 AM,78.1,68.0,71,29.75,10.0,South,13.8,-,N/A,,Clear,190,2013-06-25 06:55:00
2:15 AM,77.4,68.4,74,29.77,10.0,SSW,6.9,-,N/A,Rain-Thunderstorm,Light Thunderstorms and Rain,210,2013-06-25 07:15:00
2:35 AM,75.4,69.1,81,29.77,10.0,South,6.9,-,N/A,Rain-Thunderstorm,Light Thunderstorms and Rain,170,2013-06-25 07:35:00
2:55 AM,74.8,69.3,83,29.81,10.0,North,6.9,-,N/A,,Clear,350,2013-06-25 07:55:00
3:15 AM,74.8,69.1,82,29.81,10.0,NW,4.6,-,N/A,,Clear,320,2013-06-25 08:15:00
3:35 AM,75.4,68.9,80,29.79,10.0,Calm,Calm,-,N/A,,Clear,0,2013-06-25 08:35:00
3:55 AM,73.4,69.4,87,29.79,10.0,Calm,Calm,-,N/A,,Scattered Clouds,0,2013-06-25 08:55:00
4:15 AM,72.9,69.6,90,29.78,10.0,South,4.6,-,N/A,,Scattered Clouds,180,2013-06-25 09:15:00
4:35 AM,72.7,69.1,88,29.76,10.0,Calm,Calm,-,N/A,,Clear,0,2013-06-25 09:35:00
4:55 AM,73.0,68.4,85,29.76,10.0,Calm,Calm,-,N/A,,Clear,0,2013-06-25 09:55:00
5:15 AM,73.2,67.6,83,29.75,10.0,SSE,5.8,-,N/A,,Clear,160,2013-06-25 10:15:00
5:35 AM,73.4,67.8,83,29.74,10.0,SE,8.1,-,N/A,,Clear,140,2013-06-25 10:35:00
5:55 AM,71.8,68.0,88,29.76,10.0,South,5.8,-,N/A,,Clear,170,2013-06-25 10:55:00
6:15 AM,72.3,68.0,86,29.78,10.0,SSE,3.5,-,N/A,,Clear,150,2013-06-25 11:15:00
6:35 AM,72.5,68.0,86,29.78,10.0,Calm,Calm,-,N/A,,Clear,0,2013-06-25 11:35:00
6:55 AM,71.4,68.0,89,29.78,10.0,Calm,Calm,-,N/A,,Clear,0,2013-06-25 11:55:00
7:15 AM,73.6,67.1,80,29.78,10.0,SSW,9.2,-,N/A,,Clear,200,2013-06-25 12:15:00
7:35 AM,74.1,66.2,76,29.81,10.0,SW,8.1,-,N/A,,Scattered Clouds,230,2013-06-25 12:35:00
7:55 AM,74.3,63.3,68,29.83,10.0,West,6.9,-,N/A,Rain,Light Rain,260,2013-06-25 12:55:00
8:15 AM,73.9,63.3,69,29.82,10.0,NW,6.9,-,N/A,Rain,Light Rain,320,2013-06-25 13:15:00
8:35 AM,73.8,64.9,74,29.81,10.0,Calm,Calm,-,N/A,,Scattered Clouds,0,2013-06-25 13:35:00
8:55 AM,74.8,66.4,75,29.79,10.0,SSE,3.5,-,N/A,,Clear,150,2013-06-25 13:55:00
9:15 AM,75.2,65.3,71,29.78,10.0,South,5.8,-,N/A,,Clear,180,2013-06-25 14:15:00
9:35 AM,75.2,66.0,73,29.78,10.0,SE,5.8,-,N/A,,Clear,140,2013-06-25 14:35:00
9:55 AM,77.4,67.3,71,29.77,10.0,SE,8.1,-,N/A,,Clear,140,2013-06-25 14:55:00
10:15 AM,78.6,67.1,68,29.77,10.0,SE,8.1,-,N/A,,Scattered Clouds,140,2013-06-25 15:15:00
10:35 AM,79.0,68.0,69,29.78,10.0,ESE,8.1,-,N/A,,Mostly Cloudy,120,2013-06-25 15:35:00
10:55 AM,81.3,69.6,67,29.78,10.0,East,10.4,-,N/A,,Mostly Cloudy,90,2013-06-25 15:55:00
11:15 AM,81.5,69.6,67,29.77,10.0,East,9.2,-,N/A,,Scattered Clouds,90,2013-06-25 16:15:00
11:35 AM,82.4,69.8,66,29.77,10.0,East,9.2,-,N/A,,Clear,100,2013-06-25 16:35:00
11:55 AM,81.5,69.1,66,29.76,10.0,SE,6.9,-,N/A,,Scattered Clouds,130,2013-06-25 16:55:00
12:15 PM,84.0,70.5,64,29.75,10.0,ESE,10.4,-,N/A,,Scattered Clouds,120,2013-06-25 17:15:00
12:35 PM,84.9,71.4,64,29.74,10.0,ESE,9.2,-,N/A,,Clear,120,2013-06-25 17:35:00
12:55 PM,86.2,71.1,60,29.75,10.0,SSE,17.3,24.2,N/A,,Clear,160,2013-06-25 17:55:00
1:15 PM,85.3,72.0,64,29.74,10.0,South,16.1,-,N/A,,Scattered Clouds,170,2013-06-25 18:15:00
1:35 PM,85.3,72.0,64,29.73,10.0,South,20.7,28.8,N/A,,Scattered Clouds,170,2013-06-25 18:35:00
1:55 PM,84.2,72.0,67,29.73,10.0,South,15.0,23.0,N/A,,Scattered Clouds,170,2013-06-25 18:55:00
2:15 PM,84.0,72.5,68,29.72,10.0,South,18.4,-,N/A,,Scattered Clouds,170,2013-06-25 19:15:00
2:35 PM,83.5,72.9,70,29.72,10.0,South,12.7,19.6,N/A,,Scattered Clouds,170,2013-06-25 19:35:00
2:55 PM,83.8,73.8,72,29.72,10.0,South,9.2,-,N/A,,Scattered Clouds,170,2013-06-25 19:55:00
3:15 PM,83.8,73.6,71,29.72,10.0,SSE,9.2,16.1,N/A,,Mostly Cloudy,160,2013-06-25 20:15:00
3:35 PM,84.4,74.1,71,29.71,10.0,South,12.7,-,N/A,,Overcast,170,2013-06-25 20:35:00
3:55 PM,84.6,73.8,70,29.71,10.0,SSE,6.9,10.4,N/A,,Overcast,160,2013-06-25 20:55:00
4:15 PM,84.4,73.4,69,29.71,10.0,South,12.7,17.3,N/A,,Overcast,170,2013-06-25 21:15:00
4:35 PM,85.5,73.6,67,29.70,7.0,South,16.1,-,N/A,,Mostly Cloudy,170,2013-06-25 21:35:00
4:55 PM,85.6,74.7,70,29.70,10.0,South,16.1,20.7,N/A,,Overcast,180,2013-06-25 21:55:00
5:15 PM,85.1,73.2,67,29.70,10.0,South,11.5,23.0,N/A,,Overcast,170,2013-06-25 22:15:00
5:35 PM,85.3,73.6,68,29.70,10.0,South,12.7,21.9,N/A,,Mostly Cloudy,170,2013-06-25 22:35:00
5:55 PM,85.1,73.6,68,29.70,10.0,SSE,9.2,-,N/A,,Mostly Cloudy,160,2013-06-25 22:55:00
6:15 PM,84.6,74.5,72,29.69,10.0,SSE,5.8,-,N/A,,Overcast,160,2013-06-25 23:15:00
6:35 PM,85.5,73.8,68,29.69,10.0,SSE,10.4,-,N/A,,Overcast,160,2013-06-25 23:35:00
6:55 PM,84.6,74.1,71,29.69,10.0,SE,8.1,-,N/A,,Scattered Clouds,140,2013-06-25 23:55:00
7:15 PM,84.2,74.1,72,29.69,10.0,SSE,9.2,-,N/A,,Mostly Cloudy,150,2013-06-26 00:15:00
7:35 PM,84.0,74.5,73,29.69,10.0,SE,8.1,-,N/A,,Mostly Cloudy,140,2013-06-26 00:35:00
7:55 PM,83.3,74.3,74,29.69,10.0,SE,8.1,-,N/A,,Clear,140,2013-06-26 00:55:00
8:15 PM,82.6,74.3,76,29.69,10.0,SE,5.8,-,N/A,,Clear,140,2013-06-26 01:15:00
8:35 PM,81.9,74.3,78,29.69,10.0,SE,6.9,-,N/A,,Clear,140,2013-06-26 01:35:00
8:55 PM,81.1,74.3,80,29.69,10.0,SE,6.9,-,N/A,,Clear,140,2013-06-26 01:55:00
9:15 PM,80.8,73.8,79,29.69,10.0,SE,8.1,-,N/A,,Clear,140,2013-06-26 02:15:00
9:35 PM,80.6,73.4,79,29.69,10.0,SE,5.8,-,N/A,,Scattered Clouds,140,2013-06-26 02:35:00
9:55 PM,80.4,73.0,78,29.70,10.0,SE,5.8,-,N/A,,Scattered Clouds,130,2013-06-26 02:55:00
10:15 PM,79.9,73.0,80,29.71,10.0,ESE,5.8,-,N/A,,Scattered Clouds,120,2013-06-26 03:15:00
10:35 PM,79.0,73.4,83,29.71,10.0,ESE,5.8,-,N/A,,Scattered Clouds,110,2013-06-26 03:35:00
10:55 PM,78.8,73.4,83,29.71,10.0,ESE,6.9,-,N/A,,Clear,110,2013-06-26 03:55:00
11:15 PM,78.4,73.0,83,29.70,10.0,SE,5.8,-,N/A,,Clear,130,2013-06-26 04:15:00
11:35 PM,78.4,73.0,83,29.69,10.0,SE,6.9,-,N/A,,Clear,140,2013-06-26 04:35:00
11:55 PM,77.5,72.9,85,29.69,10.0,SSE,6.9,-,N/A,,Clear,150,2013-06-26 04:55:00